| time (UTC) | temp F | wind direction | speed MPH | gust MPH | rain 1hr in | rain 24hr in | rain mn in | humidity % | barometer mb |
| 20260905140054 | 75 | 340 | 27.0 | 48.0 | 0.00 | 0.00 | 0.00 | 53 | 1018.2 |
| 20260905134556 | 75 | 330 | 32.0 | 49.0 | 0.00 | 0.00 | 0.00 | 52 | 1018.3 |
| 20260905133052 | 74 | 322 | 28.0 | 56.0 | 0.00 | 0.00 | 0.00 | 53 | 1018.3 |
| 20260905131554 | 74 | 320 | 27.0 | 54.0 | 0.00 | 0.00 | 0.00 | 54 | 1018.2 |
| 20260905130052 | 74 | 314 | 23.0 | 41.0 | 0.00 | 0.00 | 0.00 | 55 | 1018.3 |
| 20260905124552 | 73 | 354 | 25.0 | 45.0 | 0.00 | 0.00 | 0.00 | 56 | 1018.4 |
| 20260905123051 | 73 | 322 | 26.0 | 44.0 | 0.00 | 0.00 | 0.00 | 58 | 1018.3 |
| 20260905121549 | 73 | 332 | 22.0 | 42.0 | 0.00 | 0.00 | 0.00 | 58 | 1018.4 |
| 20260905120049 | 73 | 342 | 22.0 | 42.0 | 0.00 | 0.00 | 0.00 | 58 | 1018.4 |
| 20260905114605 | 73 | 321 | 26.0 | 45.0 | 0.00 | 0.00 | 0.00 | 57 | 1018.4 |
| 20260905113051 | 73 | 356 | 30.0 | 47.0 | 0.00 | 0.00 | 0.00 | 56 | 1018.4 |
| 20260905111552 | 72 | 338 | 25.0 | 47.0 | 0.00 | 0.00 | 0.00 | 59 | 1018.2 |
| 20260905110046 | 71 | 325 | 19.0 | 50.0 | 0.00 | 0.00 | 0.00 | 62 | 1018.4 |
| 20260905104547 | 70 | 11 | 23.0 | 43.0 | 0.00 | 0.00 | 0.00 | 64 | 1018.3 |
| 20260905103039 | 69 | 344 | 31.0 | 50.0 | 0.00 | 0.00 | 0.00 | 64 | 1018.5 |
| 20260905101539 | 69 | 348 | 24.0 | 41.0 | 0.00 | 0.00 | 0.00 | 67 | 1018.6 |
| 20260905100032 | 68 | 326 | 17.0 | 30.0 | 0.00 | 0.00 | 0.00 | 69 | 1018.6 |
| 20260905094530 | 67 | 330 | 6.0 | 19.0 | 0.00 | 0.00 | 0.00 | 71 | 1018.6 |
| 20260905093027 | 66 | 328 | 0.0 | 0.0 | 0.00 | 0.00 | 0.00 | 72 | 1018.6 |
| 20260905091526 | 65 | 328 | 0.0 | 14.0 | 0.00 | 0.00 | 0.00 | 72 | 1018.6 |
| 20260905090026 | 65 | 327 | 0.0 | 16.0 | 0.00 | 0.00 | 0.00 | 72 | 1018.6 |
| 20260905084532 | 65 | 325 | 10.0 | 25.0 | 0.00 | 0.00 | 0.00 | 70 | 1018.8 |
| 20260905083024 | 65 | 320 | 9.0 | 25.0 | 0.00 | 0.00 | 0.00 | 70 | 1018.7 |
| 20260905081524 | 65 | 327 | 18.0 | 25.0 | 0.00 | 0.00 | 0.00 | 69 | 1018.9 |
| 20260905080035 | 65 | 347 | 9.0 | 22.0 | 0.00 | 0.00 | 0.00 | 69 | 1019.0 |
| 20260905074520 | 65 | 339 | 12.0 | 22.0 | 0.00 | 0.00 | 0.00 | 68 | 1019.4 |
| 20260905073033 | 65 | 328 | 16.0 | 27.0 | 0.00 | 0.00 | 0.00 | 68 | 1019.3 |
| 20260905071516 | 65 | 354 | 11.0 | 22.0 | 0.00 | 0.00 | 0.00 | 67 | 1018.9 |
| 20260905070014 | 65 | 359 | 10.0 | 24.0 | 0.00 | 0.00 | 0.00 | 66 | 1018.9 |
| 20260905064514 | 66 | 342 | 13.0 | 26.0 | 0.00 | 0.00 | 0.00 | 63 | 1019.0 |
| 20260905063009 | 66 | 7 | 17.0 | 31.0 | 0.00 | 0.00 | 0.00 | 60 | 1018.5 |
| 20260905061505 | 68 | 19 | 14.0 | 41.0 | 0.00 | 0.00 | 0.00 | 58 | 1018.2 |
| 20260905060001 | 68 | 9 | 16.0 | 36.0 | 0.00 | 0.00 | 0.00 | 57 | 1017.7 |
| 20260905054558 | 68 | 333 | 14.0 | 38.0 | 0.00 | 0.00 | 0.00 | 56 | 1017.1 |
| 20260905053056 | 68 | 44 | 20.0 | 38.0 | 0.00 | 0.00 | 0.00 | 57 | 1016.2 |
| 20260905051551 | 68 | 358 | 9.0 | 28.0 | 0.00 | 0.00 | 0.00 | 59 | 1015.7 |
| 20260905050047 | 68 | 8 | 18.0 | 36.0 | 0.00 | 0.00 | 0.00 | 59 | 1015.3 |
| 20260905044544 | 68 | 37 | 20.0 | 41.0 | 0.00 | 0.00 | 0.00 | 61 | 1014.7 |
| 20260905043106 | 68 | 32 | 19.0 | 35.0 | 0.00 | 0.00 | 0.00 | 64 | 1013.9 |
| 20260905041539 | 69 | 19 | 13.0 | 28.0 | 0.00 | 0.00 | 0.00 | 63 | 1015.0 |
| 20260905040046 | 70 | 46 | 18.0 | 46.0 | 0.00 | 0.00 | 0.00 | 60 | 1014.7 |
| 20260905034533 | 71 | 62 | 19.0 | 37.0 | 0.00 | 0.00 | 0.00 | 65 | 1014.0 |
| 20260905033030 | 72 | 34 | 19.0 | 40.0 | 0.00 | 0.00 | 0.00 | 67 | 1013.7 |
| 20260905031527 | 74 | 50 | 8.0 | 24.0 | 0.00 | 0.00 | 0.00 | 67 | 1013.3 |
| 20260905030024 | 76 | 338 | 14.0 | 36.0 | 0.00 | 0.00 | 0.00 | 62 | 1012.3 |
| 20260905024523 | 76 | 21 | 0.0 | 0.0 | 0.00 | 0.00 | 0.00 | 54 | 1012.1 |
| 20260905023021 | 76 | 21 | 0.0 | 19.0 | 0.00 | 0.00 | 0.00 | 54 | 1011.9 |
| 20260905021520 | 76 | 335 | 1.0 | 11.0 | 0.00 | 0.00 | 0.00 | 53 | 1012.0 |
| 20260905020017 | 76 | 334 | 0.0 | 0.0 | 0.00 | 0.00 | 0.00 | 54 | 1011.7 |
| 20260905014519 | 76 | 334 | 0.0 | 0.0 | 0.00 | 0.00 | 0.00 | 53 | 1011.5 |
| 20260905013013 | 75 | 334 | 0.0 | 11.0 | 0.00 | 0.00 | 0.00 | 56 | 1011.7 |
| 20260905011508 | 72 | 336 | 3.0 | 22.0 | 0.00 | 0.00 | 0.00 | 61 | 1011.6 |
| 20260905010014 | 70 | 230 | 0.0 | 0.0 | 0.00 | 0.00 | 0.00 | 69 | 1011.5 |
| 20260905004508 | 71 | 230 | 0.0 | 0.0 | 0.00 | 0.00 | 0.00 | 71 | 1011.5 |
| 20260905003005 | 70 | 230 | 0.0 | 0.0 | 0.00 | 0.00 | 0.00 | 67 | 1011.3 |
| 20260905001504 | 70 | 230 | 0.0 | 0.0 | 0.00 | 0.00 | 0.00 | 68 | 1011.3 |
| 20260905000008 | 70 | 230 | 0.0 | 0.0 | 0.00 | 0.00 | 0.00 | 70 | 1011.2 |
| 20260904234502 | 70 | 230 | 0.0 | 0.0 | 0.00 | 0.00 | 0.00 | 68 | 1011.3 |
| 20260904233107 | 70 | 230 | 0.0 | 0.0 | 0.00 | 0.00 | 0.00 | 66 | 1011.2 |
| 20260904231559 | 71 | 230 | 0.0 | 0.0 | 0.00 | 0.00 | 0.00 | 67 | 1011.1 |
| 20260904224556 | 71 | 230 | 0.0 | 0.0 | 0.00 | 0.00 | 0.00 | 66 | 1010.9 |
| 20260904223057 | 71 | 230 | 0.0 | 0.0 | 0.00 | 0.00 | 0.00 | 66 | 1010.8 |
| 20260904221551 | 72 | 230 | 0.0 | 0.0 | 0.00 | 0.00 | 0.00 | 66 | 1010.9 |
| 20260904220108 | 72 | 230 | 0.0 | 0.0 | 0.00 | 0.00 | 0.00 | 63 | 1010.9 |
| 20260904214548 | 73 | 230 | 0.0 | 0.0 | 0.00 | 0.00 | 0.00 | 64 | 1010.8 |
| 20260904213047 | 73 | 230 | 0.0 | 0.0 | 0.00 | 0.00 | 0.00 | 61 | 1010.7 |
| 20260904211602 | 73 | 230 | 0.0 | 0.0 | 0.00 | 0.00 | 0.00 | 62 | 1010.6 |
| 20260904210049 | 74 | 230 | 0.0 | 0.0 | 0.00 | 0.00 | 0.00 | 59 | 1010.7 |
| 20260904204545 | 75 | 230 | 0.0 | 0.0 | 0.00 | 0.00 | 0.00 | 61 | 1010.5 |
| 20260904203051 | 75 | 230 | 0.0 | 0.0 | 0.00 | 0.00 | 0.00 | 57 | 1010.5 |
| 20260904201544 | 76 | 230 | 0.0 | 0.0 | 0.00 | 0.00 | 0.00 | 58 | 1010.6 |
| 20260904200046 | 77 | 230 | 0.0 | 0.0 | 0.00 | 0.00 | 0.00 | 56 | 1010.6 |
| 20260904194547 | 79 | 230 | 0.0 | 0.0 | 0.00 | 0.00 | 0.00 | 54 | 1010.6 |
| 20260904193044 | 80 | 230 | 0.0 | 0.0 | 0.00 | 0.00 | 0.00 | 54 | 1010.6 |
| 20260904191548 | 81 | 230 | 0.0 | 0.0 | 0.00 | 0.00 | 0.00 | 51 | 1010.6 |
| 20260904190047 | 81 | 230 | 0.0 | 10.0 | 0.00 | 0.00 | 0.00 | 50 | 1010.5 |
| 20260904184551 | 82 | 230 | 5.0 | 12.0 | 0.00 | 0.00 | 0.00 | 48 | 1010.4 |
| 20260904183045 | 83 | 230 | 5.0 | 13.0 | 0.00 | 0.00 | 0.00 | 47 | 1010.3 |
| 20260904181540 | 83 | 230 | 8.0 | 18.0 | 0.00 | 0.00 | 0.00 | 46 | 1010.2 |
| 20260904180048 | 84 | 208 | 1.0 | 9.0 | 0.00 | 0.00 | 0.00 | 45 | 1010.3 |
| 20260904174541 | 85 | 208 | 0.0 | 6.0 | 0.00 | 0.00 | 0.00 | 43 | 1010.3 |
| 20260904173043 | 87 | 208 | 0.0 | 7.0 | 0.00 | 0.00 | 0.00 | 42 | 1010.4 |
| 20260904171540 | 88 | 208 | 0.0 | 1.0 | 0.00 | 0.00 | 0.00 | 40 | 1010.5 |
| 20260904170044 | 89 | 208 | 0.0 | 1.0 | 0.00 | 0.00 | 0.00 | 39 | 1010.7 |
| 20260904164535 | 89 | 208 | 0.0 | 10.0 | 0.00 | 0.00 | 0.00 | 38 | 1010.8 |
| 20260904163032 | 89 | 208 | 0.0 | 12.0 | 0.00 | 0.00 | 0.00 | 37 | 1010.9 |
| 20260904161533 | 90 | 188 | 5.0 | 15.0 | 0.00 | 0.00 | 0.00 | 37 | 1011.1 |
| 20260904160029 | 90 | 244 | 6.0 | 16.0 | 0.00 | 0.00 | 0.00 | 36 | 1011.3 |
| 20260904154529 | 90 | 217 | 6.0 | 15.0 | 0.00 | 0.00 | 0.00 | 37 | 1011.5 |
| 20260904153026 | 89 | 207 | 4.0 | 17.0 | 0.00 | 0.00 | 0.00 | 37 | 1011.6 |
| 20260904151525 | 90 | 230 | 0.0 | 11.0 | 0.00 | 0.00 | 0.00 | 36 | 1011.8 |
| 20260904150033 | 91 | 303 | 3.0 | 17.0 | 0.00 | 0.00 | 0.00 | 34 | 1011.9 |
| 20260904144521 | 90 | 325 | 2.0 | 15.0 | 0.00 | 0.00 | 0.00 | 35 | 1012.0 |
| 20260904143019 | 90 | 354 | 6.0 | 19.0 | 0.00 | 0.00 | 0.00 | 35 | 1012.3 |
| 20260904141526 | 91 | 329 | 0.0 | 27.0 | 0.00 | 0.00 | 0.00 | 35 | 1012.6 |